Wind_Gust
15 22 25 26 20 18 11 13 12 9 11 12 8 11 11 13 10 9 9 9 8 12 13 9 10 13 15 16 18 18 19 20 20 25 25 21 20 14 12 13 15 18 18 17 16 15 16 16 16 15 15 15 14 14 15 15 15 16 16 14 13 11 11 11 11 10 9 9 10 9 12 15 14 15 14 14 13 12 11 10 9 9 9 8 7 8
12 19 20 11 13 16 15 12 12 13 8 14 13 12 11 9 16 7 8 13 13 7 12 10 19 14 11 11 16 17 19 16 19 22 24 26 17 14 13 15 17 16 18 18 16 16 16 17 16 15 15 15 17 15 15 15 16 15 15 15 14 12 11 10 10 11 10 8 11 13 14 15 15 15 15 15 14 13 11 11 11 11 9 8 8 9
23 26 12 10 17 17 14 13 12 12 11 7 14 11 11 13 8 9 7 12 12 12 14 12 20 15 13 10 13 17 14 14 12 19 25 24 20 18 20 17 18 17 19 16 16 16 14 16 16 16 15 15 16 18 18 16 16 14 14 15 14 14 13 13 11 12 13 9 8 10 14 16 18 17 15 16 14 13 14 14 14 13 12 11 10 8
19 15 15 11 16 20 11 14 13 10 6 10 10 15 23 9 11 16 9 12 15 14 14 13 22 16 14 13 13 11 14 14 11 10 16 20 25 21 20 21 20 19 20 16 17 16 15 15 16 17 16 17 16 16 15 14 15 13 13 13 14 14 12 13 13 12 13 14 15 16 17 15 14 15 13 15 14 14 15 16 14 14 12 11 12 11
15 14 12 17 18 23 20 14 17 18 18 5 8 9 9 7 7 9 9 8 8 17 14 19 18 14 10 13 11 14 15 15 13 15 16 14 19 18 20 16 13 18 17 18 15 16 17 16 16 17 16 15 16 16 15 15 14 14 14 14 14 13 13 12 12 12 10 13 14 14 13 13 14 13 13 13 15 15 15 16 16 15 13 12 12 12
9 14 18 19 16 19 21 18 20 20 17 12 7 10 10 8 9 6 7 6 11 9 8 8 14 10 7 13 14 12 15 15 15 19 15 15 17 18 19 15 18 17 14 16 13 16 16 16 16 16 15 16 17 17 15 16 17 14 15 15 15 14 13 14 13 12 14 13 12 13 13 13 14 17 16 17 14 14 16 15 13 16 15 13 13 13
14 12 19 21 19 17 19 19 13 19 17 17 19 11 9 9 9 9 7 7 8 13 10 8 16 13 7 15 14 13 16 16 16 19 18 17 18 19 20 12 14 14 12 16 10 17 16 15 17 15 16 15 17 15 15 17 18 17 16 15 15 15 15 13 14 13 14 15 14 15 16 15 16 17 14 11 11 13 14 12 13 14 14 15 14 14
14 16 15 17 20 23 19 21 17 17 19 24 7 15 9 9 10 6 8 7 8 7 7 6 10 12 11 15 13 16 16 17 16 18 19 18 19 20 18 18 20 15 14 18 10 18 17 16 18 18 13 14 16 14 14 15 14 16 16 16 16 16 16 14 12 16 14 14 12 14 15 16 15 14 13 9 9 9 10 12 14 14 15 15 15 15
16 19 17 19 16 21 26 13 16 16 23 14 9 15 15 12 10 9 8 6 7 7 15 10 7 12 12 10 15 19 17 16 17 18 22 22 19 23 21 21 21 18 18 19 14 19 20 17 16 15 16 14 14 13 15 15 14 14 16 17 17 18 16 15 15 15 14 14 13 13 12 15 13 12 11 9 9 10 10 12 13 15 15 15 15 16
11 19 19 18 22 24 11 13 21 17 20 7 12 9 9 8 9 7 11 10 6 9 13 15 15 18 12 10 18 16 19 21 22 23 24 25 23 22 22 21 17 18 18 19 15 15 18 17 17 16 16 17 17 14 15 15 15 15 15 18 18 17 15 14 16 16 16 15 14 14 13 13 11 10 10 9 10 11 10 13 13 13 16 16 15 15
9 5 16 20 23 16 15 14 21 18 7 15 18 16 11 9 7 9 9 9 8 17 15 15 15 15 16 20 25 24 27 30 27 22 21 23 23 23 22 23 22 20 19 22 18 16 19 19 18 17 17 16 16 14 14 15 16 16 16 17 19 17 16 16 16 17 17 16 15 15 14 14 12 10 10 11 13 14 14 15 15 16 16 15 15 15
10 13 17 12 12 12 14 15 7 16 18 23 17 15 17 9 9 8 7 9 17 22 10 10 19 16 23 14 23 25 12 26 30 30 29 29 29 25 21 19 16 17 18 22 22 17 20 19 16 15 17 15 16 16 15 14 14 16 16 18 20 18 16 16 16 18 18 17 17 16 16 16 16 15 16 17 17 16 16 14 15 14 14 15 14 15
14 18 8 5 14 22 18 19 12 9 15 16 18 21 24 19 16 19 14 18 24 20 10 7 12 11 23 10 9 22 16 23 24 30 33 32 29 23 18 16 15 16 16 19 21 17 15 18 16 17 16 14 14 16 15 16 15 15 16 17 21 19 17 17 17 18 18 18 19 19 19 17 17 17 17 17 17 16 16 16 16 16 16 16 17 18
12 7 8 11 8 18 24 32 23 18 20 18 30 28 28 25 23 20 20 14 12 11 8 8 7 17 10 9 9 13 10 17 24 24 28 29 28 22 20 20 21 21 17 18 19 16 12 14 17 13 13 13 14 16 16 17 17 16 18 18 20 19 17 17 19 20 20 19 18 17 17 17 17 17 17 16 17 16 17 18 18 17 16 16 16 17
21 19 21 20 23 11 27 22 23 16 22 23 9 27 25 21 28 24 24 26 16 12 8 8 18 16 17 11 10 10 10 17 23 26 22 20 20 22 22 23 21 20 18 13 16 15 14 14 12 13 13 13 13 15 15 14 16 18 18 18 19 19 18 19 19 19 19 19 18 17 17 16 16 16 17 16 16 16 17 17 18 18 17 17 16 17
18 16 11 15 8 19 21 10 15 20 16 9 11 13 16 24 12 15 13 12 13 14 10 13 14 8 8 11 9 15 19 22 26 23 22 21 21 23 24 24 21 21 20 18 17 17 14 12 12 13 13 13 14 15 15 14 16 18 18 18 19 18 18 19 19 18 18 18 18 17 17 17 16 17 17 19 18 19 19 18 18 18 17 17 16 16
14 21 6 10 8 23 21 17 18 24 35 24 15 28 17 12 14 13 5 9 5 6 13 10 8 9 7 8 11 18 23 21 22 21 21 21 22 23 23 23 22 22 22 22 20 20 14 12 12 13 13 15 16 16 16 16 18 18 18 19 19 19 18 19 18 17 17 17 17 18 19 18 19 20 19 20 19 19 19 20 19 19 18 17 18 17
24 14 6 13 12 14 9 23 17 18 15 23 29 21 12 9 13 13 14 7 9 17 18 10 14 12 14 16 15 20 22 22 22 21 21 22 25 24 24 25 25 24 20 17 17 17 18 15 15 15 13 14 17 18 18 18 16 15 17 17 18 18 19 17 17 17 16 16 17 18 19 19 19 19 19 19 19 19 20 20 20 19 20 20 19 19
13 17 11 16 20 16 9 13 17 7 11 21 17 18 32 19 22 10 15 13 15 17 16 9 11 15 20 13 21 23 25 25 27 24 24 25 26 26 23 24 24 24 25 23 20 18 17 17 17 17 15 16 18 18 19 20 18 17 16 17 20 20 17 16 15 16 17 16 15 16 17 17 19 19 20 19 19 18 19 20 20 20 19 18 18 19
7 16 12 7 15 12 16 21 30 25 10 6 15 26 12 12 12 21 25 12 15 10 9 9 13 19 21 18 28 30 32 31 31 28 27 29 27 26 25 26 27 26 25 24 23 20 21 20 19 18 18 19 18 19 19 18 18 19 18 19 19 19 17 17 17 17 17 16 17 17 17 18 19 20 20 20 20 21 20 19 20 20 19 20 20 19
13 8 19 12 7 13 26 30 27 28 28 20 26 26 18 14 9 14 10 12 15 19 14 13 15 18 15 21 30 31 34 38 38 34 28 29 27 24 25 27 25 25 25 21 23 21 20 20 18 16 17 19 19 18 19 19 19 17 17 19 19 20 18 18 16 17 17 17 18 18 18 18 18 19 21 21 21 21 20 19 19 21 19 19 21 20
12 10 11 13 19 24 8 12 13 23 23 24 27 25 19 15 17 24 22 12 12 14 15 15 22 14 13 11 16 23 21 31 27 28 26 26 25 25 25 25 25 25 23 21 22 20 22 20 19 18 17 18 20 20 20 19 19 17 17 19 19 19 18 17 17 17 17 17 18 18 18 18 18 20 22 21 22 22 21 21 21 20 20 20 21 20
13 13 12 13 16 21 9 7 9 18 18 17 23 19 21 15 15 21 23 15 11 9 9 10 7 8 9 8 9 16 23 26 29 27 26 25 25 24 25 24 23 24 26 26 21 20 19 19 20 20 18 18 19 20 20 19 18 18 17 18 18 20 18 17 18 17 17 18 19 19 19 19 20 20 21 21 22 23 23 22 20 21 21 22 21 21
7 21 15 9 8 9 9 7 5 12 16 11 23 17 21 24 21 19 15 16 20 11 13 10 12 12 8 7 9 17 18 15 22 26 25 22 21 25 24 21 22 22 21 18 17 18 18 18 17 18 18 19 19 19 19 19 18 18 17 17 19 19 17 16 16 17 17 18 20 19 20 21 21 22 21 22 22 22 21 21 20 20 20 20 20 21
21 10 15 17 20 19 11 8 10 6 15 22 21 14 18 12 9 7 11 8 18 18 15 16 23 10 8 7 15 21 22 20 22 23 28 25 18 22 23 22 19 19 20 19 20 18 18 18 19 18 17 18 19 20 19 19 18 18 17 17 19 17 16 16 16 17 18 18 20 20 21 21 22 23 23 23 22 21 21 20 20 19 20 20 20 20
9 9 17 20 25 26 31 32 31 23 21 11 7 14 16 22 14 13 18 15 21 9 12 24 14 8 9 11 20 23 23 18 19 21 19 24 26 23 20 20 20 21 21 19 18 17 18 19 19 17 16 19 20 22 21 19 18 18 17 17 15 17 16 16 16 16 17 18 20 21 21 21 21 22 22 22 22 22 21 20 20 19 19 19 20 19
16 7 8 13 18 18 12 10 7 10 15 27 11 15 14 12 17 15 13 15 23 11 16 12 15 15 16 18 23 25 27 25 24 22 23 21 26 27 24 22 22 22 22 20 16 16 18 19 19 17 17 19 20 19 20 19 19 19 18 17 16 16 16 15 16 17 18 18 18 20 20 21 21 22 21 21 20 20 20 20 19 19 19 19 19 20
10 10 7 11 8 6 6 6 7 7 21 13 15 17 16 17 15 16 19 24 15 19 17 11 13 27 23 24 24 24 23 24 24 24 24 24 25 29 27 22 17 20 18 17 19 20 19 18 18 18 19 20 20 20 19 18 18 18 18 18 16 16 15 14 16 17 18 18 18 19 19 18 17 18 18 17 17 18 18 18 18 18 18 18 19 20
15 15 6 7 7 5 6 6 7 7 6 10 15 16 18 17 17 24 24 12 17 20 21 14 20 20 24 32 35 35 34 32 30 26 25 25 24 22 25 25 23 21 21 19 19 19 20 20 19 20 20 21 20 20 20 20 19 18 18 17 16 16 16 16 17 18 18 18 18 17 17 17 16 17 17 17 17 18 18 19 18 19 19 19 19 18
17 11 9 6 10 7 9 8 7 11 9 9 7 9 12 19 22 23 19 12 22 14 10 28 27 22 18 25 29 25 20 24 25 23 25 25 26 26 25 25 24 23 22 21 21 21 20 20 20 21 21 20 19 19 20 20 19 18 18 17 17 17 16 17 18 18 18 19 17 16 17 18 17 17 17 18 18 18 18 19 19 19 19 19 19 18
12 10 11 9 7 8 9 8 8 9 10 14 6 8 8 9 10 7 9 8 11 12 7 17 20 15 8 17 25 20 20 22 24 26 30 27 25 26 26 25 24 24 22 21 21 22 22 21 21 22 21 20 19 19 20 19 19 18 18 17 17 16 16 18 19 19 18 18 16 17 17 17 17 17 18 17 18 18 20 20 19 19 20 19 19 19
8 6 6 10 13 6 6 9 7 8 11 12 8 8 11 15 16 12 17 12 14 15 17 18 15 16 12 22 22 23 25 29 29 30 33 31 28 27 27 26 25 24 24 23 22 23 24 23 24 23 21 19 19 19 19 19 19 19 18 17 17 16 17 19 19 20 18 17 17 17 17 17 17 18 18 18 19 19 19 19 20 20 20 20 19 19
13 16 13 8 13 7 6 6 6 7 9 8 7 9 11 6 9 8 9 7 10 25 25 20 23 21 27 29 30 27 30 30 29 31 33 30 28 29 29 29 27 26 25 25 25 25 25 24 23 21 20 18 19 18 17 19 20 19 18 18 16 16 17 19 20 20 17 15 16 16 16 16 18 18 19 18 18 17 18 20 21 21 20 20 18 19
12 15 11 8 19 10 6 7 6 8 12 15 8 6 9 10 15 14 12 12 12 16 14 14 9 22 29 30 32 32 35 42 39 29 26 35 33 27 26 29 27 26 23 23 24 25 24 23 21 19 18 18 18 19 18 18 20 18 18 19 18 17 17 20 19 18 15 14 15 15 16 17 18 19 18 17 18 19 20 22 21 18 17 17 18 20
15 12 10 8 16 12 6 5 9 12 19 8 7 8 10 7 8 10 7 9 10 7 6 9 21 32 37 37 37 33 26 21 24 28 25 26 27 28 28 26 25 27 27 26 25 24 23 24 23 21 20 20 20 19 20 19 18 19 19 18 19 18 19 19 20 17 15 16 15 15 17 18 19 19 17 17 18 20 20 19 18 18 17 18 19 19
17 17 13 10 9 9 9 12 18 16 8 7 7 7 7 7 7 9 7 11 14 15 11 13 19 22 22 23 22 23 24 21 19 20 26 24 27 30 29 27 27 29 29 28 29 27 26 25 25 24 22 20 20 19 18 19 18 20 20 19 19 18 18 19 19 18 16 16 16 16 17 18 18 17 17 18 19 20 19 16 16 16 16 18 19 19
22 16 17 11 8 15 10 7 11 9 9 7 10 12 21 17 19 16 13 14 21 18 15 15 20 22 23 21 22 22 23 24 20 18 20 28 24 24 33 31 31 28 27 25 26 26 24 23 23 22 21 19 18 19 17 17 19 20 20 20 19 19 18 18 19 18 17 17 17 16 16 16 17 16 17 18 19 18 16 15 16 16 15 18 19 20
8 22 14 17 10 11 13 11 11 9 12 14 17 8 15 7 10 8 9 7 9 17 17 20 25 27 24 23 25 25 25 28 20 23 25 24 25 22 18 23 26 26 26 26 24 24 22 19 20 20 23 21 17 15 17 17 19 20 20 20 19 20 19 19 18 17 16 17 16 15 14 14 16 17 17 17 17 16 15 14 14 15 14 17 18 20
13 12 10 15 15 9 9 15 15 16 21 14 11 10 12 8 10 8 9 15 15 23 22 25 27 28 30 35 32 32 33 35 35 34 30 29 26 26 28 26 26 27 28 29 30 28 24 23 24 23 21 21 21 18 16 18 19 20 20 19 18 19 19 18 17 16 16 15 14 14 14 14 15 16 15 16 13 12 14 14 13 13 13 15 16 18
11 6 7 13 11 12 15 14 14 21 14 4 9 7 13 9 7 9 11 21 16 26 26 30 33 34 32 32 35 37 44 37 35 32 31 29 28 26 30 31 29 26 24 22 22 25 24 23 24 23 23 22 20 19 19 19 19 18 19 18 17 19 19 17 16 16 15 15 14 13 14 13 14 13 13 13 12 12 12 11 13 14 14 15 16 17
11 7 8 15 13 7 9 8 9 14 15 8 8 10 11 11 9 12 24 13 15 23 28 31 33 36 37 36 37 40 21 14 20 29 31 32 30 27 26 29 31 31 30 27 26 21 25 24 25 26 24 21 20 20 20 20 20 18 17 16 18 18 17 15 15 15 14 14 14 14 14 12 12 12 10 10 10 10 11 11 12 12 14 15 16 16
5 9 5 8 11 15 11 15 17 11 11 9 8 12 9 12 12 18 15 8 20 23 20 23 29 35 37 37 35 11 15 28 30 28 30 30 30 27 27 26 23 21 21 23 25 24 24 23 22 22 21 19 21 20 20 21 20 18 17 17 18 16 14 14 14 14 14 14 15 14 13 12 10 9 9 9 9 10 11 10 10 11 12 13 14 15
20 21 16 16 13 9 8 9 8 15 10 14 19 9 7 12 15 10 6 6 16 20 21 20 24 28 28 26 15 18 24 31 31 30 29 30 31 31 31 28 25 24 24 23 21 21 25 24 23 23 20 19 18 19 20 21 19 17 16 19 16 14 13 13 13 13 14 14 14 13 12 10 9 9 8 9 8 10 11 10 11 10 11 12 13 14
6 12 11 11 17 19 16 23 22 13 10 18 19 21 18 14 8 10 10 14 11 18 20 21 20 23 28 25 23 25 27 29 30 31 29 28 30 32 28 26 25 25 23 21 24 22 21 24 23 22 19 18 18 18 19 21 19 17 17 18 14 12 12 12 12 12 14 13 13 12 11 10 9 8 8 8 8 9 11 11 10 10 12 11 13 15
7 6 12 12 12 15 17 13 7 7 9 7 7 7 8 7 7 7 7 20 23 19 16 22 24 23 25 24 25 26 30 30 32 32 33 31 30 30 31 27 25 28 26 23 22 22 19 24 24 22 20 17 17 18 19 18 19 17 18 15 14 15 15 13 12 12 14 14 13 11 10 8 8 7 7 7 8 10 10 10 10 12 11 11 13 14
6 6 7 8 7 6 7 8 9 8 7 7 6 7 8 7 6 6 12 14 11 20 24 27 25 26 26 25 31 24 29 28 32 30 30 31 30 27 26 24 25 23 24 22 20 20 21 23 22 22 21 18 17 18 17 17 18 19 18 15 14 15 15 14 13 13 14 13 11 11 10 9 8 7 7 7 8 8 8 8 9 10 11 11 12 13
6 8 7 7 7 9 13 6 7 7 8 6 8 6 6 7 7 7 9 11 15 16 16 17 25 27 28 29 28 25 28 30 33 30 29 30 31 28 26 27 24 23 24 24 22 23 23 22 23 22 21 19 17 18 18 17 18 18 16 15 14 15 15 15 14 13 12 11 11 9 8 7 7 7 7 6 6 6 6 6 6 7 9 10 12 13
8 9 7 6 7 8 7 6 7 8 9 9 8 7 5 5 5 6 7 8 13 15 17 21 22 23 24 26 29 32 30 29 31 30 30 29 28 26 27 30 25 22 20 21 19 19 19 22 22 22 22 21 17 17 18 18 19 18 17 15 15 15 15 14 14 15 13 12 10 9 8 7 3 5 6 7 7 7 7 6 5 7 9 10 11 12
7 8 7 8 9 9 7 8 8 9 9 9 8 9 7 6 7 8 10 14 18 21 20 18 19 26 24 25 29 32 33 28 31 30 29 26 28 27 29 34 28 26 25 24 20 21 22 18 20 20 19 18 16 15 16 16 15 17 16 15 15 16 16 14 12 11 11 10 10 9 7 6 6 6 6 8 7 6 7 6 6 6 7 6 7 7
9 9 8 7 6 7 13 11 13 10 8 11 13 11 10 9 9 13 13 16 19 23 24 25 19 17 20 27 30 35 34 30 27 29 31 29 26 27 27 27 25 25 23 22 20 20 20 18 18 17 17 14 14 14 16 16 15 14 15 16 16 16 15 13 12 11 11 10 10 9 8 7 7 6 6 6 7 8 8 4 5 7 7 7 6 8
7 9 13 11 13 6 9 12 10 7 5 7 9 11 11 12 13 17 18 20 19 20 25 29 27 23 23 23 26 33 32 34 27 26 27 27 28 28 29 27 27 26 27 23 22 21 21 19 19 19 17 16 14 15 16 16 15 14 13 15 16 17 16 15 13 12 11 10 10 9 8 8 7 8 7 6 6 5 6 8 9 6 9 8 6 7
Wind_Speed
6 9 11 12 9 10 7 8 6 2 5 6 2 5 5 6 4 3 1 4 3 5 6 3 4 6 8 8 10 11 11 12 11 10 12 12 12 8 8 5 6 8 10 10 10 9 8 8 7 6 7 7 8 8 9 8 9 9 8 8 8 6 6 5 5 4 4 4 4 3 5 6 6 6 6 6 6 5 4 4 4 4 3 3 3 3
5 8 10 6 7 10 9 7 7 7 2 8 7 7 5 4 7 2 3 6 3 2 5 4 11 7 5 6 9 10 10 10 12 10 10 11 9 8 7 4 8 9 9 11 8 10 9 8 9 8 7 8 10 9 9 9 9 9 9 8 7 6 5 5 5 5 4 3 4 5 5 6 6 6 7 7 6 6 5 5 5 5 4 3 3 4
10 11 6 6 10 11 8 8 7 7 6 2 6 4 4 5 2 2 2 6 5 1 6 6 11 7 5 5 8 8 8 5 5 9 12 13 9 4 7 7 7 7 8 7 9 9 8 10 10 9 8 9 10 11 11 9 9 8 8 8 8 7 6 5 5 5 6 4 3 4 6 7 8 7 7 8 6 6 7 7 7 6 6 5 5 4
8 6 9 6 9 13 6 8 8 5 3 4 4 7 10 2 3 6 4 7 8 4 5 7 12 7 7 7 8 6 7 5 2 5 9 5 6 8 8 3 8 9 7 8 10 10 9 9 10 10 9 10 9 9 8 7 8 6 6 6 7 7 6 6 6 6 6 7 8 9 9 8 7 6 6 8 7 7 7 7 6 6 6 5 5 5
3 8 7 10 12 15 13 9 11 9 8 0 2 2 3 2 2 3 3 3 4 10 8 11 8 5 4 6 5 7 7 8 4 9 8 8 8 11 7 8 4 7 7 7 7 10 10 10 9 10 10 8 9 9 9 9 7 7 7 7 7 6 6 6 5 5 5 6 8 6 6 6 7 7 6 6 6 6 7 7 7 6 6 6 5 4
4 9 11 12 11 12 13 10 12 11 8 5 3 5 4 2 4 2 2 1 2 3 1 2 4 2 1 6 7 6 7 8 8 10 6 7 8 9 10 4 5 1 7 7 5 9 9 9 10 10 9 10 9 9 8 9 10 8 8 8 8 7 6 6 6 6 5 5 4 4 4 6 6 7 7 7 7 6 7 7 6 8 8 7 6 5
4 7 12 13 12 11 12 10 8 12 8 8 7 6 4 3 4 4 3 1 3 4 2 3 6 2 1 7 7 7 9 9 9 11 10 9 9 11 11 6 6 2 6 8 2 8 9 9 11 9 9 9 10 8 8 9 10 9 8 8 8 7 6 6 6 6 5 6 6 7 7 7 7 8 6 5 5 6 6 6 7 7 7 8 7 7
6 10 9 11 13 13 10 10 8 10 8 8 3 9 5 5 5 2 2 1 2 2 2 1 1 3 3 6 7 8 9 10 9 12 11 10 10 10 10 9 13 8 8 11 2 8 9 10 10 12 9 9 9 9 8 8 7 9 9 9 8 7 7 6 5 8 6 6 6 8 8 8 7 7 6 4 4 4 4 6 7 6 7 7 8 8
10 10 11 12 10 10 12 6 10 10 9 3 4 9 9 7 5 4 2 1 2 2 2 3 2 2 2 4 7 10 10 10 10 12 14 13 11 12 13 13 12 11 10 12 8 11 11 10 11 9 9 8 9 7 8 8 7 7 8 9 9 9 8 8 8 8 7 6 6 6 5 8 6 5 5 4 4 4 4 6 6 6 6 7 7 8
2 11 11 11 11 10 5 7 14 11 9 1 6 4 3 3 4 2 4 3 1 1 4 7 7 5 3 5 9 9 11 11 13 14 15 16 14 14 12 14 11 11 11 11 7 8 11 9 9 10 10 10 9 8 9 9 8 8 8 10 11 10 7 7 9 9 9 8 7 7 7 7 5 4 4 4 4 4 4 6 6 6 6 6 6 7
3 2 9 8 10 7 8 8 12 11 2 9 11 9 5 3 1 3 2 1 1 5 5 9 9 7 4 9 12 11 11 15 15 11 12 14 15 14 13 15 14 12 11 12 10 9 13 12 11 11 11 11 9 7 7 8 9 9 9 10 11 9 8 8 9 10 10 9 8 7 7 7 6 5 5 4 5 5 6 6 6 6 6 6 6 6
5 7 7 3 3 4 9 7 1 3 11 15 5 5 7 3 2 2 1 1 5 6 3 3 10 9 9 5 11 13 6 12 17 19 19 18 18 15 13 10 8 9 10 12 11 9 12 12 10 9 11 9 9 9 8 7 8 9 8 10 12 10 9 8 8 9 9 8 9 9 9 9 8 8 6 7 8 7 7 7 5 5 5 6 6 6
7 8 1 2 5 14 9 10 5 3 8 8 9 10 11 6 3 5 3 5 8 5 3 1 6 3 10 3 3 13 10 11 14 17 20 20 19 15 11 10 8 8 10 9 9 9 7 10 8 10 10 8 8 8 9 9 8 8 9 10 12 11 9 9 9 10 11 10 11 10 10 10 8 9 9 9 9 7 6 6 6 6 6 6 6 7
3 1 3 5 4 8 13 14 9 7 9 10 14 13 12 8 7 5 8 1 3 0 1 1 2 5 3 2 3 7 4 10 14 15 17 19 18 14 12 12 10 8 8 6 7 8 5 6 7 8 8 7 7 9 9 10 9 9 9 10 12 11 10 10 11 11 11 11 10 9 9 8 8 8 8 7 7 8 7 6 7 7 6 6 7 7
8 7 9 11 8 5 13 11 12 7 11 10 3 12 11 8 5 6 7 7 5 3 3 2 7 4 8 3 2 5 3 8 13 15 14 12 13 14 13 13 12 12 12 5 7 8 9 7 6 7 7 8 6 8 8 7 9 10 10 10 11 11 10 11 11 11 11 10 10 9 8 8 7 7 7 7 6 7 8 8 8 7 7 7 6 7
11 3 4 7 2 11 12 3 7 11 7 0 1 3 4 9 1 4 1 3 4 4 2 4 2 2 1 3 3 5 9 12 16 13 12 13 13 14 14 13 12 11 12 11 11 10 8 7 7 7 7 7 8 9 8 8 8 10 10 11 11 10 10 11 11 10 10 9 9 9 10 9 9 8 8 9 8 9 9 9 8 8 8 7 7 7
4 6 2 4 4 14 13 9 8 13 11 8 4 11 6 5 5 4 2 4 2 0 3 3 1 2 1 2 6 11 13 14 14 13 14 14 14 15 13 13 13 13 12 13 12 11 9 7 7 7 7 7 9 9 9 9 10 11 10 11 11 11 11 11 10 9 9 9 10 11 11 10 10 10 10 9 10 10 10 10 9 8 8 8 8 7
9 5 2 5 7 8 4 15 10 10 4 8 10 8 6 2 3 2 3 1 2 5 2 2 6 5 5 3 8 13 14 14 13 14 13 14 16 14 14 14 14 14 13 10 8 9 11 9 10 9 7 7 9 11 11 11 9 8 9 10 11 10 11 10 9 9 8 9 9 10 10 10 10 9 10 9 9 9 10 10 9 9 9 9 8 8
3 6 4 10 12 9 4 8 9 1 3 9 7 9 11 5 10 2 1 3 4 4 2 1 5 5 8 5 12 15 15 17 17 16 15 16 16 15 14 15 15 15 14 13 12 9 9 9 10 10 9 9 10 11 11 11 10 9 9 10 11 12 10 9 7 8 8 8 7 7 9 10 10 9 10 10 10 10 10 10 10 10 9 9 9 9
2 4 3 1 8 6 7 9 12 11 1 1 8 11 2 1 4 8 4 1 2 3 1 3 6 3 8 7 18 18 21 21 21 17 17 18 17 15 14 15 16 15 14 14 13 11 10 12 11 11 11 11 11 11 11 11 10 11 10 11 11 11 10 10 9 9 9 8 8 8 9 10 10 10 10 10 10 10 10 10 10 10 10 10 10 9
3 3 6 3 2 5 10 9 12 13 13 8 11 10 5 0 3 2 2 2 3 2 2 1 3 4 6 10 17 20 22 24 24 21 17 17 17 15 16 16 15 15 14 12 14 12 12 11 11 9 9 10 10 11 10 10 10 9 9 11 11 12 11 10 9 9 8 8 9 10 10 10 10 11 11 11 11 11 11 10 10 10 9 9 10 10
2 1 3 4 7 10 2 5 8 13 12 11 11 11 9 6 7 11 8 4 1 2 2 3 3 2 1 3 7 13 12 19 17 18 16 17 16 16 14 16 16 14 13 13 13 12 12 12 11 10 9 9 11 11 11 10 10 10 10 10 10 10 9 9 9 9 9 9 9 10 10 10 10 11 11 12 12 12 11 11 11 10 10 10 10 10
2 2 3 4 6 9 3 3 1 10 11 9 11 8 11 6 5 7 8 5 3 2 3 1 1 1 2 2 3 7 13 17 18 17 15 15 16 16 15 15 14 15 16 15 13 11 11 11 12 11 11 11 11 11 11 10 10 9 10 10 9 10 10 9 9 9 8 9 10 11 10 10 10 10 12 12 12 13 12 11 10 10 10 10 10 10
3 2 6 3 3 1 3 1 2 7 10 5 11 8 9 11 11 8 2 6 7 4 3 2 3 1 2 2 3 7 10 9 13 16 16 13 13 15 16 14 15 15 14 12 8 8 9 10 10 10 10 11 10 11 11 10 10 9 9 9 10 11 10 9 8 8 9 9 11 11 11 11 11 13 12 12 11 12 11 10 10 10 10 10 9 9
3 2 3 7 6 7 5 3 3 1 5 7 8 5 10 5 3 2 5 1 5 8 7 5 8 2 2 1 7 10 11 11 12 15 16 14 11 13 14 13 11 10 11 12 11 10 9 10 11 10 10 10 10 10 10 11 10 9 9 8 10 9 8 8 8 8 9 10 11 11 11 13 12 13 13 12 11 12 11 10 9 9 10 9 9 9
1 3 6 8 10 11 12 13 12 10 9 1 1 7 9 14 9 6 7 5 7 2 7 8 2 2 2 4 10 13 13 11 11 14 12 14 16 14 13 13 12 11 11 12 11 10 10 9 10 10 10 9 10 11 11 10 10 9 9 9 8 9 8 8 7 8 9 9 10 11 12 12 12 12 12 12 11 11 10 10 10 9 9 10 10 9
2 1 1 2 5 6 3 2 3 5 5 11 6 10 7 8 10 9 3 4 8 4 7 3 3 7 7 11 14 15 16 16 14 12 14 13 17 17 15 11 10 10 11 12 10 8 9 11 12 10 10 10 11 11 11 10 10 9 9 9 9 8 8 7 8 8 9 9 10 10 11 11 11 11 11 10 9 9 9 9 9 9 9 9 9 9
3 3 3 5 4 1 2 1 2 2 12 7 9 11 11 10 9 10 7 6 8 7 6 3 6 9 11 15 16 15 15 15 14 15 14 14 15 17 17 12 11 12 10 9 10 12 12 11 11 11 11 12 11 11 10 10 9 9 9 9 8 8 7 6 8 9 9 9 9 10 10 9 9 9 9 8 9 9 9 9 9 9 9 9 9 9
4 4 2 3 3 1 1 1 2 2 1 4 10 11 12 11 11 15 12 5 10 8 6 8 12 8 10 19 22 22 21 19 19 17 16 16 13 13 15 16 14 13 12 12 12 11 12 12 11 12 12 12 12 12 12 10 10 9 9 8 8 8 8 8 9 9 9 9 9 9 8 8 8 8 8 9 9 9 9 9 9 9 9 9 9 7
4 4 4 2 5 2 3 1 3 6 4 4 1 4 7 13 14 13 11 7 13 7 1 12 13 13 4 14 18 16 13 15 14 14 15 16 15 16 15 14 15 14 13 13 13 13 12 13 12 12 13 12 12 12 11 10 10 9 9 8 8 8 8 8 9 9 9 9 8 8 9 9 8 8 8 9 9 9 9 9 9 9 10 10 9 9
4 2 5 4 2 3 4 2 3 5 5 7 0 3 3 4 6 2 1 3 4 4 2 8 10 7 1 7 15 13 11 11 13 15 18 17 16 17 16 16 15 15 13 13 13 13 13 13 13 13 13 12 12 12 11 10 10 9 9 8 8 8 8 9 10 10 9 9 8 8 8 8 8 8 9 9 9 9 10 10 9 9 10 10 10 10
1 1 0 1 4 1 2 3 2 2 4 4 3 2 6 9 9 5 4 5 7 6 7 9 5 6 4 12 14 12 14 18 18 20 20 19 18 17 17 16 16 15 15 14 14 14 15 14 14 14 12 12 12 12 11 10 10 10 9 9 8 7 8 10 10 10 10 8 8 8 9 8 9 9 9 9 10 10 10 10 10 11 10 10 10 10
4 5 3 2 5 1 0 2 1 1 4 3 3 3 6 2 3 3 4 2 4 10 10 7 9 7 13 16 18 17 19 17 16 19 20 19 18 18 18 18 17 16 15 15 16 16 15 15 14 13 12 11 10 10 10 11 10 10 10 10 8 7 8 10 11 11 9 7 8 8 8 8 9 10 9 9 9 9 9 10 11 11 11 11 9 10
5 7 2 0 4 2 1 2 1 1 4 3 3 1 4 4 9 8 5 6 7 8 3 2 2 11 17 18 19 20 21 23 21 17 15 20 19 16 16 17 17 16 14 14 15 15 15 12 11 10 11 11 11 11 10 10 11 10 9 10 9 9 9 10 10 10 8 7 7 7 8 9 10 10 9 9 9 9 11 11 11 10 8 8 9 10
9 5 3 1 2 3 2 0 3 5 4 3 2 2 5 1 2 2 2 3 4 2 1 2 9 17 23 22 23 21 16 14 15 18 17 16 17 16 17 16 16 17 17 16 16 15 14 14 14 13 12 12 11 11 11 10 10 10 10 9 10 9 10 10 11 9 8 8 7 8 8 9 10 10 9 9 9 10 11 10 9 9 8 8 9 9
6 5 2 2 2 2 1 3 4 2 1 0 2 1 3 2 2 3 1 5 8 9 5 6 8 10 12 13 13 13 11 10 10 11 15 15 17 17 17 15 17 18 18 16 18 17 16 15 16 15 13 11 11 10 10 10 10 11 11 10 10 9 10 10 10 10 8 8 8 8 9 10 9 9 9 9 10 10 10 8 8 8 8 9 9 9
12 5 4 2 3 3 1 2 1 4 2 2 1 5 9 7 10 7 4 6 13 10 8 6 9 12 14 13 14 11 12 11 9 6 12 18 15 15 19 19 20 18 17 16 16 16 15 15 14 13 12 11 10 10 10 9 10 11 11 11 9 10 10 10 10 10 9 9 8 8 8 8 9 8 9 9 10 9 8 7 8 8 7 9 9 9
1 9 4 5 1 1 3 3 2 1 3 3 8 2 9 1 2 2 2 1 4 10 9 10 14 16 16 14 12 14 14 11 11 13 14 15 16 14 11 15 16 16 16 16 14 14 13 12 12 12 13 13 11 9 9 10 10 11 11 11 10 10 10 10 10 9 9 8 8 7 7 7 8 9 9 9 9 8 7 7 6 7 6 8 9 10
5 4 3 5 4 2 2 4 2 3 3 1 2 4 7 3 3 4 1 4 6 13 13 14 16 18 19 21 19 17 15 15 17 13 16 18 15 15 16 16 16 17 17 18 19 18 15 14 15 14 13 13 13 10 9 11 12 11 11 10 10 10 10 10 9 8 8 8 7 7 6 7 8 8 8 8 6 5 6 6 6 5 5 6 7 8
5 1 1 2 3 2 3 3 4 3 1 0 3 3 7 4 3 3 3 3 8 15 16 17 20 21 20 17 19 21 18 14 17 14 17 16 15 16 18 19 18 16 15 14 14 15 15 14 15 14 14 14 12 11 12 11 10 10 10 9 9 10 10 9 8 8 7 7 7 6 6 6 7 6 6 6 5 5 5 4 5 6 6 7 7 7
3 1 0 4 4 2 5 0 2 2 3 3 1 4 5 6 3 3 6 0 5 13 17 18 20 22 23 22 19 19 10 5 9 15 17 17 18 16 15 18 19 19 19 17 15 15 14 14 14 15 15 12 12 11 11 11 11 10 9 9 10 10 9 8 7 7 7 7 7 7 6 5 5 5 4 4 4 4 4 4 5 5 6 7 7 7
1 2 1 2 3 5 3 5 3 1 1 3 2 5 3 4 3 6 1 2 7 12 12 13 17 21 23 24 19 4 7 10 15 16 18 18 18 17 17 16 14 13 13 15 17 15 14 13 13 14 13 11 11 11 11 11 11 10 9 9 10 9 7 7 7 6 7 7 7 7 6 5 4 3 3 3 3 4 4 3 3 4 5 5 6 7
5 4 5 5 2 3 0 1 1 4 2 8 12 3 2 2 0 2 1 2 4 11 12 12 13 18 18 13 7 9 13 15 18 19 18 18 18 19 18 14 13 14 14 14 13 13 15 13 14 14 12 10 11 10 11 12 11 9 9 11 10 7 6 6 6 6 7 7 7 6 5 4 4 3 2 3 3 3 4 4 4 4 4 5 6 7
2 2 1 1 4 4 4 5 3 1 4 11 9 5 6 2 2 2 3 4 5 9 11 10 10 13 18 10 11 12 14 18 19 19 18 17 18 18 15 13 13 14 13 13 15 14 14 14 13 12 11 10 10 10 11 12 10 9 10 11 7 6 6 6 5 6 7 6 6 5 4 4 3 2 2 2 2 3 4 5 4 4 4 4 5 6
2 0 1 2 4 2 1 0 2 1 2 2 2 2 3 2 2 2 1 6 10 8 8 9 12 14 15 13 12 14 14 17 19 20 20 18 18 18 17 15 16 15 14 15 13 14 12 14 15 13 12 9 10 10 10 10 10 10 11 8 7 7 7 6 6 6 7 7 6 5 4 2 2 2 2 2 3 3 4 4 4 5 4 4 5 6
1 0 2 0 1 1 1 2 4 2 2 2 1 2 3 2 1 2 4 6 5 9 11 12 14 14 13 14 14 12 14 17 20 19 18 19 18 17 16 15 14 14 14 13 13 13 13 13 14 14 13 11 10 10 9 9 10 12 10 8 7 7 7 7 6 7 7 6 5 4 3 3 2 1 1 2 2 2 2 2 3 4 4 4 5 5
1 3 2 1 2 3 2 2 2 2 3 2 3 1 1 2 2 1 2 2 6 8 8 9 13 13 15 14 14 14 15 18 19 18 18 17 17 17 17 16 15 14 14 14 14 14 13 14 13 13 13 12 10 10 9 10 10 10 8 8 7 7 8 8 7 6 5 5 4 3 2 2 2 1 1 1 1 1 1 1 1 2 3 3 4 5
3 4 1 1 3 2 1 1 3 4 4 4 3 2 1 0 0 1 1 2 6 8 8 11 12 13 14 13 15 18 18 17 19 18 17 17 16 15 15 15 16 12 11 13 13 12 11 13 13 14 13 11 9 9 10 10 11 10 9 8 7 7 7 7 7 7 6 6 4 3 2 2 2 0 1 1 1 1 1 1 0 2 3 4 4 4
1 3 1 3 1 1 2 3 3 4 4 4 3 4 2 1 2 2 4 7 9 11 11 10 11 13 13 13 15 18 18 17 18 19 18 15 15 14 15 16 18 15 14 16 13 14 11 10 12 12 12 10 8 8 9 9 8 9 9 7 8 8 8 7 6 5 6 4 4 3 2 1 1 0 0 1 0 1 1 1 1 1 2 1 1 1
3 3 2 2 1 1 2 1 6 2 1 4 7 6 5 4 4 6 7 9 11 12 13 14 11 10 10 14 16 18 19 16 16 18 18 15 15 16 16 16 12 12 13 14 12 12 12 10 10 11 10 8 7 7 9 9 8 7 8 8 8 8 8 7 5 5 5 4 4 3 2 2 2 1 1 0 1 1 2 2 2 2 2 2 2 2
1 3 5 2 1 1 0 2 3 2 1 2 1 6 6 6 6 9 10 11 11 12 15 16 15 12 13 13 14 18 19 17 17 16 16 16 15 16 17 18 16 15 16 15 14 14 13 12 12 12 11 9 8 8 9 8 8 7 6 7 8 9 8 7 6 5 5 4 4 3 3 2 2 2 1 1 1 1 1 1 3 5 5 4 1 4
Wind_Direction
152 167 187 195 182 169 156 172 163 141 162 134 117 145 179 187 201 318 232 75 305 104 47 42 85 122 140 135 117 123 118 123 133 146 165 154 156 170 178 188 160 153 123 114 119 123 125 121 119 122 133 125 111 100 102 112 118 112 109 109 106 110 122 119 120 123 125 133 134 108 90 83 81 83 81 73 73 73 70 70 69 72 66 70 80 84
201 188 203 163 143 155 149 119 96 107 104 153 170 180 166 226 190 73 353 352 27 252 95 91 92 89 88 122 117 129 136 132 152 155 148 147 168 152 152 134 147 132 110 109 118 125 127 128 129 120 112 111 110 106 109 108 105 107 104 103 107 106 109 124 132 132 131 112 96 93 85 85 76 82 81 79 74 78 75 72 71 69 71 71 66 71
190 206 125 150 148 147 138 140 145 135 130 63 175 166 163 201 351 340 37 16 14 198 102 134 99 90 91 108 108 120 148 145 169 171 156 157 164 132 110 118 88 75 103 121 117 115 106 102 101 104 103 102 102 102 103 103 98 91 98 104 100 102 108 102 105 118 108 103 66 83 101 100 93 73 82 87 82 79 78 73 73 74 78 87 94 81
180 195 161 142 142 135 147 156 158 131 100 132 130 168 194 85 193 184 47 28 28 13 130 128 104 103 107 105 94 94 126 157 155 28 77 81 82 83 93 89 140 143 136 129 120 111 100 95 96 91 87 84 89 95 97 85 89 86 81 82 92 97 99 95 94 95 94 95 92 89 94 94 86 96 87 84 84 81 77 69 66 67 67 68 72 82
141 127 146 143 152 151 154 168 163 176 193 329 193 170 158 144 82 338 85 53 66 61 109 125 100 102 124 137 113 107 120 131 138 103 93 65 92 98 114 164 355 134 125 115 113 106 103 93 84 87 85 78 84 86 87 94 88 91 81 80 78 71 66 69 71 81 100 105 100 100 92 91 92 84 79 82 71 71 74 73 66 65 61 57 61 63
137 154 139 152 158 152 150 168 180 171 183 191 249 225 200 115 117 76 66 167 138 105 114 288 176 117 167 160 133 134 143 151 136 117 95 94 119 109 129 114 35 9 156 123 114 99 91 93 90 84 78 79 76 75 74 79 86 83 79 76 74 71 64 66 62 64 69 76 85 82 79 76 76 70 61 55 60 65 66 67 66 63 60 63 60 58
146 154 163 156 156 153 160 170 179 176 179 177 204 197 215 145 106 120 111 218 175 198 127 331 238 129 187 176 150 161 170 145 138 133 131 134 142 152 164 146 106 334 69 75 32 99 97 95 90 84 87 86 83 81 86 88 86 78 72 70 72 71 71 64 67 65 72 75 75 81 85 82 82 90 73 70 70 75 79 75 71 66 57 52 51 51
138 158 171 156 153 161 162 179 185 188 155 197 119 177 147 144 172 190 91 54 79 48 92 308 303 146 164 189 152 167 174 155 137 135 149 157 175 162 155 151 140 191 146 126 216 119 115 116 109 105 96 89 98 100 90 81 74 69 71 70 66 67 64 56 66 73 72 79 76 90 92 95 97 96 102 86 74 69 74 74 71 74 63 52 45 41
158 157 171 165 156 168 185 147 141 183 174 167 163 169 178 175 188 161 210 186 67 291 188 182 214 159 193 124 147 166 159 170 154 155 170 169 178 163 161 156 160 176 162 135 153 135 126 122 117 115 100 95 94 88 85 86 82 78 73 70 63 58 54 49 54 65 65 74 85 78 77 89 82 87 90 89 77 71 69 68 67 65 61 54 45 37
288 170 171 161 166 185 126 145 158 171 167 216 142 125 92 96 80 212 228 238 139 215 219 171 186 232 144 163 158 178 190 185 179 179 175 172 171 168 163 160 163 162 158 127 123 140 121 116 109 104 103 102 98 91 95 92 84 73 71 69 66 60 53 49 55 63 62 62 62 77 84 89 89 88 87 79 80 67 56 61 53 49 48 45 44 37
122 166 160 162 189 149 148 159 161 176 105 118 139 131 113 79 92 77 57 183 150 242 213 165 193 227 230 175 177 168 200 195 182 176 175 167 172 175 172 163 161 156 140 126 130 129 118 119 114 105 99 104 101 91 84 84 81 82 76 75 72 63 59 52 55 61 64 61 62 69 72 79 84 82 78 73 56 49 48 48 50 48 47 45 43 32
126 120 162 212 135 108 136 131 284 137 138 142 148 138 127 115 129 138 100 178 219 240 93 203 186 186 236 152 193 209 221 197 171 171 170 173 177 174 169 159 136 130 126 126 123 118 115 102 101 100 103 106 112 106 97 93 92 88 87 84 79 69 65 63 61 62 62 63 63 69 67 67 67 67 65 61 58 53 55 50 49 47 43 39 38 30
140 169 107 125 183 146 155 137 159 137 172 168 145 153 175 168 155 200 162 207 217 231 78 85 158 158 230 73 185 202 220 203 184 180 177 175 174 165 141 111 100 106 113 116 109 107 110 112 120 110 113 117 110 100 94 91 86 80 74 77 81 75 70 67 66 64 61 62 66 68 72 69 62 64 68 68 66 59 58 52 47 40 36 30 27 26
116 317 182 145 171 178 161 169 156 170 191 177 174 171 179 173 186 207 198 27 31 39 96 282 210 250 27 138 171 221 227 212 171 176 177 174 166 142 116 95 81 69 57 52 89 100 92 100 108 105 110 106 103 103 98 93 90 86 78 71 73 72 68 69 67 64 65 63 66 66 67 68 69 70 67 66 64 60 57 53 51 46 41 38 35 29
147 169 197 158 182 165 184 188 171 154 164 188 134 176 198 178 173 192 194 199 212 152 93 63 168 207 181 117 336 252 181 150 149 161 160 149 133 117 111 114 119 118 119 136 121 115 108 104 100 102 107 111 99 97 99 98 92 87 79 75 73 70 63 64 65 66 67 66 65 66 66 68 71 70 70 66 61 58 56 53 51 46 40 38 33 32
181 70 86 183 108 166 183 125 133 133 169 187 180 25 165 198 56 206 95 206 147 142 134 185 230 353 17 342 317 137 145 146 146 131 117 124 121 121 122 128 133 136 137 138 127 119 112 116 113 109 109 108 105 97 91 89 89 88 86 82 77 74 70 68 68 68 68 68 67 64 66 66 67 69 69 66 63 60 56 53 50 48 43 37 34 33
100 181 82 187 23 179 174 146 181 158 182 169 148 201 202 83 104 93 98 34 52 73 207 83 103 193 280 316 122 141 132 132 130 129 129 131 135 133 134 138 141 140 139 136 134 132 129 118 106 105 113 114 107 102 95 92 91 93 91 85 78 73 70 69 68 68 67 67 66 63 63 63 63 63 63 64 64 62 58 54 51 49 45 41 37 32
159 144 119 159 184 219 151 171 174 202 112 110 201 187 76 25 17 168 215 110 220 216 183 177 159 167 169 189 156 139 137 138 138 141 141 143 146 143 147 148 149 146 141 136 136 137 131 127 119 114 110 112 114 107 102 96 91 88 88 88 86 77 73 69 68 65 62 64 63 62 62 61 61 62 62 60 59 58 56 51 48 46 45 41 39 37
185 149 188 199 184 173 125 182 174 233 292 193 177 132 174 181 211 175 138 192 179 207 157 183 180 188 208 143 159 153 152 157 157 152 150 155 157 153 148 149 145 143 139 142 141 135 125 119 123 126 126 120 109 108 106 100 98 94 89 90 88 86 80 78 75 74 69 66 65 63 61 59 59 58 58 58 57 57 56 51 44 45 45 44 43 40
292 167 140 224 199 136 156 182 192 179 133 14 131 180 14 247 206 159 203 66 205 213 164 145 168 217 212 177 175 171 173 173 162 160 163 163 163 155 151 149 149 147 145 146 143 139 130 125 129 130 128 124 118 110 103 103 100 94 93 93 91 88 86 80 76 75 73 68 70 68 64 60 59 57 58 57 57 56 54 50 45 47 47 45 45 43
152 343 171 112 5 149 188 195 200 173 172 162 185 180 184 38 340 21 78 225 216 180 205 146 204 203 199 184 188 187 180 175 172 169 162 163 161 157 151 149 150 147 147 144 143 140 131 123 119 117 118 116 110 105 103 101 99 96 95 93 92 92 86 80 77 76 74 73 68 66 62 58 55 58 61 61 58 58 54 51 48 47 49 49 47 45
105 175 186 134 170 196 151 183 193 179 181 177 183 185 180 135 159 180 202 78 173 188 189 172 249 74 94 349 222 201 180 172 170 159 155 158 153 153 149 149 148 147 148 141 142 136 132 128 125 120 116 115 108 106 106 103 99 93 93 95 95 92 88 87 82 81 80 75 70 67 64 62 61 63 63 62 60 61 59 56 52 50 51 52 48 46
159 131 120 175 184 183 162 122 289 187 180 179 184 191 180 184 167 195 212 167 115 83 86 56 338 131 18 304 285 200 181 175 166 154 151 152 148 148 148 146 147 151 151 149 144 139 137 132 126 123 121 113 109 110 107 100 94 94 94 94 93 92 90 90 88 84 82 79 75 71 67 65 62 61 62 62 62 61 61 57 53 48 49 49 50 48
148 157 157 91 74 339 1 285 131 196 173 171 206 183 174 197 197 215 202 125 188 144 190 163 246 87 57 350 191 157 139 127 147 153 143 140 140 144 143 143 144 143 141 135 122 130 130 123 118 116 112 111 111 108 101 96 96 94 94 95 94 92 96 96 94 91 87 83 79 75 71 68 65 61 59 59 56 57 55 54 53 50 50 50 48 49
180 281 193 137 144 165 172 122 160 218 230 201 189 161 191 154 135 74 79 145 215 191 179 171 228 145 72 229 156 140 130 148 149 156 147 136 135 142 144 142 140 130 126 129 134 137 134 127 122 114 111 113 115 108 100 98 99 100 97 95 94 94 95 96 95 92 87 85 80 75 71 67 64 63 61 60 56 54 54 53 53 51 50 50 50 46
224 151 176 175 165 170 183 191 191 181 192 95 273 168 189 185 140 146 193 169 224 105 189 207 193 50 119 189 151 150 146 142 150 149 151 141 143 145 144 144 140 136 137 139 138 141 136 122 106 107 113 120 116 110 104 102 105 104 100 94 95 99 97 91 89 88 86 82 79 74 71 68 65 63 62 60 59 55 52 52 52 53 51 48 49 47
129 85 196 179 182 190 198 53 9 112 133 198 186 183 181 195 179 193 97 170 209 132 195 193 136 145 173 179 171 167 161 158 153 150 151 152 150 147 145 143 143 141 139 141 137 127 115 106 109 114 121 121 113 110 109 112 113 110 104 97 93 92 91 89 87 85 82 79 79 77 74 70 67 65 64 63 61 61 58 55 54 53 52 49 48 45
120 184 133 98 59 61 46 104 96 226 182 174 157 191 180 177 191 192 198 212 104 131 217 135 164 142 195 189 181 174 167 160 157 155 151 152 155 152 147 134 133 138 135 132 131 127 116 114 118 124 126 118 113 111 110 112 113 110 106 103 97 93 89 86 85 82 81 80 78 77 76 69 68 67 66 66 65 62 60 58 56 53 51 49 47 43
135 200 145 149 75 73 211 260 209 134 213 181 186 173 185 190 181 201 211 161 169 215 229 159 182 193 179 190 190 186 177 170 164 159 153 149 144 142 141 141 143 141 145 143 134 124 127 131 133 132 125 120 118 117 117 116 113 108 105 104 101 96 93 91 87 83 81 78 77 76 75 74 68 68 68 66 64 62 59 57 55 54 52 49 48 42
147 218 131 150 138 93 49 80 162 155 134 136 163 235 202 182 193 200 207 173 197 215 55 164 179 204 173 195 188 177 160 148 147 142 144 150 153 153 147 144 145 150 149 143 138 136 133 133 135 132 127 128 125 124 122 119 118 114 110 106 101 97 95 91 84 84 81 79 80 78 76 75 72 70 68 64 63 60 59 57 56 53 51 48 45 42
212 175 147 154 159 31 29 93 122 162 153 144 311 196 210 221 201 269 79 68 57 52 129 169 178 203 342 165 166 158 140 127 138 151 158 156 155 157 152 152 150 150 147 141 140 139 138 138 137 135 134 132 128 127 122 119 116 111 105 101 99 96 97 94 90 84 83 82 81 80 79 77 73 70 66 64 63 62 60 58 56 53 51 48 43 40
200 90 298 152 196 213 22 43 44 128 137 107 130 172 155 160 180 184 180 187 183 157 125 145 167 222 173 163 146 131 145 154 160 161 163 168 162 159 157 154 152 151 150 147 144 142 143 144 142 139 137 131 127 126 125 121 116 110 104 99 95 95 95 92 90 89 87 86 85 84 81 79 76 71 67 64 62 60 60 58 55 53 49 45 41 39
152 132 162 166 193 194 75 337 57 291 141 147 194 202 168 37 33 78 9 167 252 142 131 152 208 198 161 158 148 159 163 163 160 169 170 167 165 162 158 156 157 155 152 150 149 149 147 144 142 138 132 129 126 122 120 119 115 111 109 103 100 99 98 98 95 89 82 81 86 84 81 81 78 74 69 64 62 60 58 56 53 49 45 43 40 40
145 152 161 182 199 157 119 356 255 198 204 205 47 346 189 187 177 162 192 187 194 179 187 355 59 121 151 161 166 165 173 183 178 175 166 167 163 157 158 160 156 152 148 147 146 144 140 137 135 131 128 125 123 121 119 115 112 110 107 108 108 104 103 100 96 97 101 95 90 89 88 85 81 75 70 66 63 61 58 55 51 47 45 42 41 41
157 136 117 192 156 168 111 164 166 208 212 66 267 258 224 223 182 195 92 217 203 165 251 201 163 161 173 179 180 177 168 155 160 162 159 159 156 161 162 158 150 147 149 147 147 145 143 140 135 131 129 128 125 123 118 115 115 116 116 120 118 116 111 103 100 102 105 102 96 93 89 86 80 77 73 68 66 64 59 53 50 45 42 42 40 38
156 129 140 86 46 68 171 174 206 181 27 261 46 91 152 196 206 152 268 208 211 203 192 185 188 185 171 165 167 165 149 118 114 141 157 168 170 161 160 156 153 155 154 157 150 148 146 146 143 140 134 130 127 126 126 125 126 122 121 123 118 115 109 107 106 106 104 99 97 93 89 88 84 79 75 71 68 65 60 53 43 40 35 41 42 40
146 111 147 108 308 184 156 187 244 346 304 138 204 192 175 171 179 182 201 213 192 186 183 169 163 169 165 159 148 129 117 113 126 157 174 174 175 171 163 159 160 159 151 147 144 142 143 141 135 129 127 128 128 129 129 129 125 124 124 121 120 116 113 110 107 106 104 103 100 94 92 90 89 82 76 73 71 65 58 49 43 39 26 39 41 38
161 163 157 143 188 187 160 173 186 199 237 213 213 114 188 313 208 309 335 252 174 176 173 161 165 165 161 148 131 129 123 128 165 192 190 182 172 159 149 143 145 141 138 134 131 130 131 125 120 126 130 131 127 126 130 131 128 125 122 122 123 120 115 110 107 108 106 104 101 99 95 92 91 87 79 74 69 64 59 49 46 40 24 35 36 38
40 35 134 187 141 154 175 181 178 183 228 274 185 158 177 188 195 232 150 256 168 175 173 165 163 169 164 157 148 141 148 172 196 191 179 173 164 152 139 138 139 139 141 142 142 140 138 135 135 133 132 134 133 135 134 131 129 125 124 126 124 121 116 114 115 114 111 107 105 102 99 94 90 87 83 78 67 59 57 48 41 31 32 35 39 39
90 48 136 116 138 182 158 173 209 203 166 215 229 126 152 138 152 204 228 250 156 175 172 169 168 168 169 164 161 165 168 182 196 185 164 158 143 143 143 141 139 137 135 133 132 133 131 131 129 134 138 140 138 139 136 133 129 126 126 125 125 121 119 119 115 112 110 111 108 106 101 96 92 86 84 83 74 63 56 46 47 35 32 36 37 40
144 117 266 191 165 161 197 77 359 260 261 265 127 136 138 169 209 206 215 112 149 175 174 175 172 170 168 166 171 181 191 37 73 100 124 132 134 140 143 142 143 145 143 142 139 137 135 139 142 143 144 138 139 139 138 134 132 130 128 128 124 120 119 118 119 118 116 116 113 108 102 95 95 97 87 78 77 75 65 50 46 36 34 34 35 34
39 91 49 71 174 179 187 207 215 324 246 113 67 154 190 164 184 209 72 350 162 168 177 178 168 172 175 176 179 151 84 100 98 116 128 139 143 141 140 136 130 130 133 134 133 136 136 137 136 135 131 135 140 139 138 138 134 133 135 131 126 124 122 125 121 123 127 122 115 110 107 107 102 94 93 88 89 82 67 56 44 38 29 31 29 31
168 169 179 167 114 43 51 159 133 218 159 153 126 95 328 224 39 38 60 67 164 161 164 174 167 175 173 164 127 114 122 123 131 134 136 140 142 143 144 135 123 124 124 126 136 138 137 137 138 137 135 137 139 140 140 139 137 138 140 135 132 129 128 124 128 131 128 122 120 116 114 114 112 108 103 87 70 60 60 46 43 38 32 21 23 29
333 206 112 233 214 167 177 187 192 354 114 174 167 176 186 194 32 193 153 108 142 155 162 164 165 163 171 140 136 130 133 132 133 138 136 139 139 140 132 127 131 133 135 139 141 142 136 135 136 135 136 139 142 141 142 143 141 145 145 139 133 129 126 129 134 136 131 129 128 129 127 123 117 108 94 78 57 55 48 44 34 43 33 19 22 25
161 293 253 180 185 215 197 152 33 334 280 42 52 29 316 321 316 202 251 145 151 165 164 162 161 164 167 139 139 139 139 141 142 145 143 144 142 141 140 142 141 137 136 138 139 143 138 139 139 137 139 140 143 144 146 145 145 148 144 138 142 144 145 143 146 148 143 146 144 140 134 130 123 109 82 62 30 36 40 41 26 39 34 26 30 25
4 101 154 53 112 266 294 273 320 313 279 248 292 300 296 333 302 199 157 147 175 162 170 167 160 161 144 141 140 145 143 144 140 148 142 143 142 140 135 138 140 143 135 131 133 142 138 134 135 140 142 145 148 147 146 149 150 150 146 146 151 149 149 153 159 157 157 153 154 147 152 152 141 121 65 52 33 34 23 14 20 27 33 28 32 32
190 155 207 127 97 174 207 121 294 308 329 297 291 350 270 291 303 287 209 172 150 157 159 153 156 153 147 154 144 143 143 144 141 142 142 142 140 141 144 142 141 139 140 138 141 139 138 140 142 146 147 148 152 150 151 150 157 149 142 150 153 153 157 164 166 160 160 163 159 150 158 168 142 125 108 55 32 32 26 28 19 26 37 30 28 30
164 203 103 74 163 218 33 316 297 295 275 292 277 274 225 163 329 287 199 145 145 150 150 147 142 147 154 155 146 142 145 147 143 144 144 145 141 139 139 142 141 130 132 134 137 134 129 142 148 152 152 151 155 152 153 158 157 152 152 153 155 158 163 165 168 167 171 166 166 165 160 166 92 16 94 65 17 22 105 111 31 41 37 26 22 18
40 184 207 149 168 297 252 227 266 281 264 236 221 232 273 201 171 129 142 145 139 136 140 145 160 155 158 150 147 141 143 151 145 144 141 138 137 141 145 148 148 138 134 139 141 149 149 144 151 152 151 148 155 154 154 155 151 154 155 157 160 162 170 169 165 170 162 158 165 164 160 201 191 330 39 36 71 50 349 16 69 57 72 90 346 356
173 182 115 154 188 227 259 182 168 188 210 189 202 195 186 185 163 144 140 146 152 145 147 148 151 154 150 151 150 145 143 146 146 143 140 138 141 143 144 144 137 133 135 143 143 152 151 150 145 148 147 142 152 159 154 152 152 157 160 158 166 171 173 166 164 171 172 172 173 164 180 199 200 200 207 195 96 97 133 166 240 294 329 97 169 263
252 145 163 192 194 88 245 227 182 17 321 324 183 160 164 164 169 161 168 163 162 157 154 147 144 149 152 159 155 147 145 144 144 140 136 141 143 147 148 146 146 146 146 149 154 162 153 153 152 152 149 153 160 164 158 153 155 156 161 163 166 175 176 169 173 181 181 175 192 173 194 195 203 197 210 193 166 141 111 123 166 194 224 270 218 222